Location: Arapaho Elementary School
(32.9607°N, 96.7625°W)
Time: 07:01:23
(UTC+00:00)

H-2A R/B (2) - Pass Details

Date: 05 July 2022
Orbit: 426 x 34397 km, 28.9° (Epoch: 11 August)

Event Time Altitude Azimuth Distance (km) Brightness Sun altitude
Exits shadow 09:41:37 - 208° (SSW) 20,142 8.6 -18.2°
Reaches altitude 10° 09:56:10 10° 205° (SSW) 22,429 8.9 -16.0°
Maximum altitude 18:22:05 77° 182° (S) 2,820 8.3 79.6°
Drops below altitude 10° 18:29:40 10° 97° (E) 3,163 5.4 79.8°
Sets 18:31:09 0° 95° (E) 3,687 5.5 79.8°
